Paris, IL

9:01 PM CST on December 13, 2017 (GMT -0600)
Edgar County

Weather History for KPRG - July, 2013

Change the Weather History Date:

Tuesday, July 16, 2013

  Actual Average (KHUF) Record (KHUF)
Temperature  
Mean Temperature 78 °F -  
Max Temperature 89 °F 86 °F 99 °F (1980)
Min Temperature 67 °F 64 °F 47 °F (1967)
Cooling Degree Days 13    
Growing Degree Days 28 (Base 50)    
Moisture  
Dew Point 72 °F    
Average Humidity 81    
Maximum Humidity 100    
Minimum Humidity 56    
Precipitation  
Precipitation 0.00 in - - ()
Sea Level Pressure  
Sea Level Pressure 30.32 in    
Wind  
Wind Speed 1 mph (South)    
Max Wind Speed 6 mph    
Max Gust Speed -    
Visibility 9 miles    
Events      
Averages and records for this station are not official NWS values.
T = Trace of Precipitation, MM = Missing Value Source: NWS Daily Summary

Daily Weather History Graph

Daily Weather History Graph

Search for Another Location

Airport or City:

Trip Planner

Search our weather history database for the weather conditions in past years. The results will help you decide how hot, cold, wet, or windy it might be!

Date:

Astronomy

Jul. 16, 2013 Rise Set
Actual Time 5:36 AM CDT 8:16 PM CDT
Civil Twilight 5:04 AM CDT 8:48 PM CDT
Nautical Twilight 4:25 AM CDT 9:27 PM CDT
Astronomical Twilight 3:40 AM CDT 10:12 PM CDT
Moon 1:58 PM CDT (7/16) 12:05 AM CDT (7/16)
Length of Visible Light 15h 43m
Length of Day
14h 40m
First Quarter, 56% of the Moon is Illuminated
Jul 16
First Quarter
Jul 22
Full
Jul 29
Last Quarter
Aug 6
New
Aug 14
First Quarter

Hourly Weather History & Observations

Time (CDT) Temp. Heat Index Dew Point Humidity Pressure Visibility Wind Dir Wind Speed Gust Speed Precip Events Conditions
12:15 AM 72.7 °F - 70.0 °F 91% 30.29 in 10.0 mi SE 3.5 mph - N/A   Clear
12:35 AM 70.7 °F - 68.9 °F 94% 30.29 in 10.0 mi South 3.5 mph - N/A   Clear
12:55 AM 70.7 °F - 68.9 °F 94% 30.29 in 10.0 mi Calm Calm - N/A   Clear
1:15 AM 70.3 °F - 68.9 °F 95% 30.29 in 10.0 mi SW 3.5 mph - N/A   Clear
1:35 AM 69.6 °F - 68.0 °F 95% 30.29 in 10.0 mi Calm Calm - N/A   Clear
1:55 AM 69.1 °F - 68.0 °F 96% 30.29 in 10.0 mi Calm Calm - N/A   Clear
2:15 AM 69.1 °F - 68.0 °F 96% 30.29 in 10.0 mi Calm Calm - N/A   Clear
2:35 AM 68.7 °F - 67.6 °F 96% 30.29 in 7.0 mi Calm Calm - N/A   Clear
2:55 AM 68.5 °F - 67.6 °F 97% 30.29 in 7.0 mi Calm Calm - N/A   Clear
3:15 AM 68.0 °F - 67.1 °F 97% 30.29 in 7.0 mi Calm Calm - N/A   Clear
3:35 AM 68.2 °F - 67.3 °F 97% 30.30 in 10.0 mi Calm Calm - N/A   Clear
3:55 AM 67.5 °F - 66.6 °F 97% 30.30 in 5.0 mi Calm Calm - N/A   Clear
4:15 AM 67.6 °F - 67.1 °F 98% 30.30 in 7.0 mi Calm Calm - N/A   Clear
4:35 AM 68.5 °F - 68.0 °F 98% 30.31 in 7.0 mi Calm Calm - N/A   Clear
4:55 AM 68.2 °F - 67.5 °F 98% 30.31 in 7.0 mi Calm Calm - N/A   Clear
5:15 AM 67.8 °F - 67.3 °F 98% 30.31 in 1.2 mi Calm Calm - N/A   Mist
5:35 AM 67.3 °F - 66.9 °F 99% 30.32 in 3.0 mi Calm Calm - N/A   Clear
5:55 AM 67.5 °F - 67.3 °F 99% 30.32 in 2.5 mi Calm Calm - N/A   Clear
6:15 AM 68.2 °F - 68.2 °F 100% 30.33 in 5.0 mi Calm Calm - N/A   Clear
6:35 AM 69.4 °F - 69.4 °F 100% 30.33 in 7.0 mi Calm Calm - N/A   Clear
6:55 AM 71.2 °F - 71.2 °F 100% 30.34 in 10.0 mi Calm Calm - N/A   Clear
7:15 AM 72.7 °F - 72.7 °F 100% 30.34 in 10.0 mi Calm Calm - N/A   Clear
7:35 AM 75.2 °F - 75.2 °F 100% 30.35 in 10.0 mi Calm Calm - N/A   Clear
7:55 AM 77.0 °F - 76.3 °F 98% 30.35 in 10.0 mi Calm Calm - N/A   Clear
8:15 AM 78.8 °F - 74.7 °F 87% 30.36 in 10.0 mi Calm Calm - N/A   Clear
8:35 AM 80.2 °F 85.5 °F 75.4 °F 85% 30.36 in 10.0 mi Calm Calm - N/A   Clear
8:55 AM 81.7 °F 88.0 °F 74.8 °F 80% 30.36 in 10.0 mi Calm Calm - N/A   Clear
9:15 AM 82.8 °F 89.2 °F 74.3 °F 75% 30.36 in 10.0 mi Calm Calm - N/A   Clear
9:35 AM 84.0 °F 91.5 °F 74.5 °F 73% 30.35 in 10.0 mi Calm Calm - N/A   Clear
9:55 AM 84.6 °F 91.0 °F 73.0 °F 68% 30.35 in 10.0 mi Calm Calm - N/A   Clear
10:15 AM 85.1 °F 91.8 °F 72.9 °F 67% 30.35 in 10.0 mi Calm Calm - N/A   Clear
10:55 AM 85.8 °F 91.5 °F 71.6 °F 62% 30.35 in 10.0 mi Calm Calm - N/A   Clear
11:15 AM 86.5 °F 92.5 °F 71.8 °F 61% 30.35 in 10.0 mi Calm Calm - N/A   Clear
11:35 AM 86.9 °F 93.7 °F 72.7 °F 62% 30.35 in 10.0 mi South 3.5 mph - N/A   Scattered Clouds
11:55 AM 87.1 °F 93.6 °F 72.0 °F 61% 30.34 in 10.0 mi Calm Calm - N/A   Scattered Clouds
12:15 PM 87.4 °F 93.5 °F 71.4 °F 59% 30.34 in 10.0 mi SSW 3.5 mph - N/A   Clear
12:35 PM 87.8 °F 95.6 °F 73.2 °F 62% 30.34 in 10.0 mi Calm Calm - N/A   Clear
12:55 PM 87.8 °F 93.4 °F 71.1 °F 57% 30.34 in 10.0 mi Calm Calm - N/A   Scattered Clouds
1:15 PM 88.3 °F 94.5 °F 71.2 °F 57% 30.33 in 10.0 mi SW 5.8 mph - N/A   Scattered Clouds
1:35 PM 88.7 °F 94.8 °F 71.2 °F 56% 30.33 in 10.0 mi Calm Calm - N/A   Clear
1:55 PM 88.5 °F 94.4 °F 70.9 °F 56% 30.32 in 10.0 mi Calm Calm - N/A   Clear
2:15 PM 88.7 °F 95.7 °F 72.3 °F 58% 30.32 in 10.0 mi SSE 3.5 mph - N/A   Clear
2:35 PM 88.9 °F 95.6 °F 71.8 °F 57% 30.32 in 10.0 mi SSW 3.5 mph - N/A   Clear
3:55 PM 89.2 °F 96.4 °F 72.3 °F 57% 30.30 in 10.0 mi NNE 3.5 mph - N/A   Mostly Cloudy
4:15 PM 88.7 °F 95.7 °F 72.1 °F 58% 30.30 in 10.0 mi Calm Calm - N/A   Scattered Clouds
4:35 PM 88.7 °F 95.7 °F 72.0 °F 58% 30.30 in 10.0 mi Calm Calm - N/A   Clear
4:55 PM 89.6 °F 96.6 °F 72.0 °F 56% 30.30 in 10.0 mi Calm Calm - N/A   Clear
5:15 PM 89.2 °F 95.9 °F 71.4 °F 56% 30.30 in 10.0 mi Calm Calm - N/A   Clear
5:35 PM 88.7 °F 94.8 °F 71.1 °F 56% 30.30 in 10.0 mi Calm Calm - N/A   Clear
5:55 PM 88.9 °F 95.6 °F 71.8 °F 57% 30.30 in 10.0 mi Calm Calm - N/A   Clear
6:15 PM 88.2 °F 94.1 °F 71.4 °F 57% 30.30 in 10.0 mi Calm Calm - N/A   Clear
6:35 PM 88.3 °F 95.9 °F 73.0 °F 60% 30.29 in 10.0 mi Calm Calm - N/A   Clear
6:55 PM 87.3 °F 96.3 °F 74.8 °F 66% 30.29 in 10.0 mi Calm Calm - N/A   Clear
7:15 PM 86.2 °F 97.4 °F 76.8 °F 74% 30.29 in 10.0 mi Calm Calm - N/A   Clear
7:35 PM 84.0 °F 94.4 °F 77.5 °F 81% 30.29 in 10.0 mi Calm Calm - N/A   Clear
7:55 PM 82.4 °F 89.5 °F 75.4 °F 79% 30.29 in 10.0 mi Calm Calm - N/A   Clear
8:15 PM 80.2 °F 85.7 °F 75.6 °F 86% 30.29 in 10.0 mi Calm Calm - N/A   Clear
8:35 PM 79.0 °F - 74.5 °F 86% 30.29 in 10.0 mi Calm Calm - N/A   Clear
8:55 PM 77.2 °F - 74.3 °F 91% 30.30 in 10.0 mi Calm Calm - N/A   Clear
9:15 PM 76.8 °F - 73.8 °F 90% 30.31 in 10.0 mi Calm Calm - N/A   Clear
9:35 PM 76.1 °F - 73.6 °F 92% 30.32 in 10.0 mi Calm Calm - N/A   Clear
9:55 PM 74.8 °F - 73.0 °F 94% 30.32 in 10.0 mi Calm Calm - N/A   Clear
10:15 PM 74.5 °F - 72.9 °F 95% 30.32 in 10.0 mi Calm Calm - N/A   Clear
10:35 PM 73.6 °F - 72.1 °F 95% 30.32 in 10.0 mi Calm Calm - N/A   Clear
10:55 PM 73.8 °F - 72.7 °F 96% 30.32 in 10.0 mi Calm Calm - N/A   Clear
11:15 PM 73.4 °F - 72.5 °F 97% 30.32 in 7.0 mi Calm Calm - N/A   Clear
11:35 PM 72.3 °F - 71.4 °F 97% 30.32 in 5.0 mi Calm Calm - N/A   Clear
11:55 PM 73.4 °F - 72.7 °F 98% 30.32 in 7.0 mi Calm Calm - N/A   Clear